{"data":{"norad_id":66904,"intl_designator":"2025-283AC","name":"STARLINK-36059","alt_names":[],"object_type":"PAYLOAD","status":"ACTIVE","operator":null,"country":"US","launch_date":"2025-12-04","launch_site_code":"AFWTR","launch_vehicle":null,"mission":null,"orbit_class":"UNKNOWN","rcs_meters":null,"size_class":null,"mass_kg":null,"dimensions":null,"purposes":["comms"],"wikipedia_slug":null,"has_3d_model":false,"image_url":null,"decayed_at":null,"tle_current":{"epoch":"2026-09-20T13:09:13.572864Z","epoch_age_seconds":80332,"freshness":"FRESH","line1":"1 66904U 25283AC  26263.54807376  .00026912  00000+0  80508-3 0  9997","line2":"2 66904  53.1590 195.8190 0001303  85.3058 274.8094 15.34388422 45721","mean_motion":15.34388422,"eccentricity":0.0001303,"inclination_deg":53.159,"raan_deg":195.819,"arg_perigee_deg":85.3058,"mean_anomaly_deg":274.8094,"bstar":0.00080508,"rev_number":4572,"period_min":93.84846622624,"perigee_km":461.8462867122,"apogee_km":463.62901864669,"semimajor_km":6840.8746526794,"source":"CELESTRAK","updated_at":"2026-09-21T09:00:36.054806Z"}}}